Location: Rumah Long Bangan
(2.8362°N, 113.7519°E)
Time: 05:50:21
(UTC+00:00)

Cosmos 2219 - Pass Details

Date: 24 October 2021
Orbit: 835 x 858 km, 71.1° (Epoch: 28 November)

Event Time Altitude Azimuth Distance (km) Brightness Sun altitude
Rises 21:27:21 0° 187° (S) 3,422 6.4 -10.8°
Reaches altitude 10° 21:29:51 10° 183° (S) 2,482 5.8 -10.2°
Maximum altitude 21:35:26 56° 105° (ESE) 998 4.0 -8.8°
Drops below altitude 10° 21:40:58 10° 27° (NNE) 2,460 5.8 -7.5°
Sets 21:43:26 0° 23° (NNE) 3,390 6.5 -6.9°
